Probability
0 0 0 0 0 0 0 0 0 0 0 0 0 0 0 0 0 0 2 5 7 8 9 9 11 12 11 13 14 11 7 4 2 2 1 1 0 0 0 0 0 0 0 0
0 0 0 0 0 0 0 0 0 0 0 0 0 0 0 0 0 0 1 4 6 8 9 9 9 9 10 10 10 7 5 3 1 1 1 1 0 0 0 0 0 0 0 0
0 0 0 0 0 0 0 0 0 0 0 0 0 0 0 0 0 0 0 2 5 8 9 8 7 6 8 7 5 2 2 2 1 0 1 1 0 0 0 0 0 0 0 0
0 0 0 0 0 0 0 0 0 0 0 0 0 0 0 0 0 0 0 0 3 6 8 8 6 4 4 4 2 0 1 1 0 0 0 0 0 0 0 0 0 0 0 0
0 0 0 0 0 0 0 0 0 0 0 0 0 0 0 0 0 0 0 0 1 3 5 7 5 2 1 1 0 0 0 0 0 0 0 0 0 0 0 0 0 0 0 0
0 0 0 0 0 0 0 0 0 0 0 0 0 0 0 0 0 0 0 0 0 1 3 5 4 2 0 0 0 0 0 0 0 0 0 0 0 0 0 0 0 0 0 0
0 0 0 0 0 0 0 0 0 0 0 0 0 0 0 0 0 0 0 0 0 0 2 5 5 3 1 1 1 1 1 0 0 0 0 0 0 0 0 0 0 0 0 0
0 0 0 0 0 0 0 0 0 0 0 0 0 0 0 0 0 0 0 0 0 0 2 4 5 3 2 4 4 2 1 0 0 0 1 1 0 0 0 0 0 0 0 0
0 0 0 0 0 0 0 0 0 0 0 0 0 0 0 0 0 0 0 0 0 0 0 2 3 3 3 5 5 3 1 1 1 1 1 1 1 1 1 0 0 0 0 0
0 0 0 0 0 0 0 0 0 0 0 0 0 0 0 0 0 0 0 0 0 0 0 0 1 1 2 4 6 5 4 3 2 2 2 2 2 2 2 1 1 1 0 0
0 0 0 0 0 0 0 0 0 0 0 0 0 0 0 0 0 0 0 0 0 0 0 0 0 0 2 4 6 6 5 4 4 4 5 5 5 5 5 5 4 3 1 0
0 0 0 0 0 0 0 0 0 0 0 0 0 0 0 0 0 0 0 0 0 0 0 0 0 1 2 3 5 6 6 6 6 7 10 11 11 11 10 11 10 7 3 1
0 0 0 0 0 0 0 0 0 0 0 0 0 0 0 0 0 0 1 0 0 0 0 1 1 2 2 3 3 5 6 6 8 10 14 19 21 20 18 17 17 13 8 4
0 0 0 0 0 0 0 0 0 0 0 0 0 0 0 0 0 0 0 0 0 1 2 5 6 6 7 5 4 4 6 8 11 14 20 26 28 27 25 24 23 20 12 7
0 0 0 0 0 0 0 0 0 0 0 0 0 0 0 0 0 0 0 0 1 2 4 8 11 13 14 12 8 7 10 14 18 21 24 27 29 29 29 28 27 24 17 11
0 0 0 0 0 0 0 0 0 0 0 0 0 0 0 0 0 1 1 2 4 5 6 9 13 18 20 19 15 14 16 21 27 28 26 26 27 28 28 27 25 25 24 22
2 2 1 0 0 0 0 0 0 0 0 0 0 1 0 0 1 2 2 4 8 12 13 14 16 20 22 21 20 20 22 25 29 31 30 28 26 27 26 22 23 28 34 37
4 3 1 0 0 0 0 0 0 0 0 0 0 0 0 0 1 2 3 4 9 15 19 20 18 17 18 19 20 21 21 21 22 25 27 25 21 20 20 18 20 26 34 39
5 3 1 0 0 0 0 0 0 0 0 0 0 0 0 0 0 1 2 4 7 12 15 16 13 12 13 14 15 16 16 14 14 16 18 16 13 14 15 15 15 20 25 27
4 3 1 0 0 0 0 0 0 0 0 0 0 0 0 1 2 3 3 3 6 8 9 9 8 9 10 11 13 13 13 12 11 12 12 10 9 11 13 13 12 14 16 16
2 2 1 0 0 0 0 0 0 0 0 0 0 0 1 4 7 7 3 3 5 5 6 5 6 6 7 8 10 11 11 10 9 8 7 7 6 7 8 10 10 11 11 10
1 1 0 0 0 0 0 0 1 0 0 0 0 0 3 7 9 7 4 2 2 2 2 2 2 2 3 4 5 5 5 4 3 2 2 2 2 2 3 4 5 5 5 6
1 0 0 0 0 1 0 1 2 1 0 0 1 2 4 7 7 5 3 1 0 0 0 0 0 0 0 1 1 1 1 0 0 0 0 0 0 0 1 1 1 1 1 2
0 0 0 0 0 0 0 0 1 0 0 0 2 3 5 7 6 5 3 1 0 0 0 0 0 0 0 0 0 0 0 0 0 0 0 0 0 0 0 0 0 0 0 0
0 0 0 0 0 0 0 0 0 0 0 1 4 6 8 9 7 5 3 1 0 0 0 0 0 0 0 0 0 0 0 0 0 0 0 0 0 0 0 0 0 0 0 0
0 0 0 0 0 1 1 1 0 1 1 3 7 10 11 10 8 5 2 0 0 0 0 0 0 0 0 0 0 0 0 0 0 0 0 0 0 0 0 0 0 0 0 0
Wind_Speed
6 8 6 5 7 8 9 10 9 5 1 6 7 6 3 4 6 6 7 8 8 8 9 9 9 8 9 8 8 10 10 10 8 6 7 6 6 4 4 3 4 3 3 3
8 8 3 5 6 7 9 10 8 2 0 6 7 6 2 4 6 6 8 9 10 10 10 10 10 10 10 10 10 11 11 10 9 7 5 4 4 4 4 3 4 3 3 2
12 4 2 7 8 9 9 8 9 7 3 6 7 4 4 5 5 6 7 7 9 11 12 12 12 11 11 11 11 10 11 11 10 9 6 6 5 4 5 5 5 4 4 3
9 6 6 9 9 9 8 5 6 6 7 3 4 5 4 4 6 7 8 8 10 11 12 13 13 13 13 12 12 11 11 11 10 10 8 9 6 5 5 4 5 5 5 4
8 6 8 11 8 7 5 3 5 6 7 5 1 6 4 4 4 6 8 8 9 11 12 13 13 13 12 13 12 12 12 11 10 10 9 8 7 4 4 5 5 6 6 5
14 9 8 8 4 3 2 5 6 8 7 3 4 6 2 3 1 4 7 9 9 11 12 12 12 12 12 13 13 12 12 12 11 11 10 10 8 6 5 6 6 7 6 6
14 11 8 6 6 5 7 8 6 5 3 2 3 4 3 3 2 4 7 9 11 11 12 12 13 13 13 14 14 14 14 13 13 12 11 11 9 8 8 7 7 6 5 6
11 10 7 7 8 5 6 8 7 7 7 4 2 3 4 4 4 4 7 9 11 12 13 13 14 14 14 15 15 15 15 14 13 13 11 10 10 8 7 8 6 7 5 5
9 7 3 4 4 5 5 6 6 8 7 7 2 1 4 6 6 7 9 10 11 12 13 14 14 15 15 15 16 15 15 14 13 13 12 11 11 10 7 7 8 6 6 5
10 9 5 5 6 3 6 4 4 6 6 7 3 2 2 4 7 8 9 11 12 13 14 14 14 15 15 15 15 15 14 14 13 13 12 10 11 11 9 9 9 7 7 6
10 10 7 8 9 7 7 6 6 6 6 7 6 2 5 1 4 8 9 10 11 13 14 14 14 15 15 15 15 14 14 14 13 13 12 11 11 11 11 10 10 9 8 8
9 8 8 7 2 3 7 7 7 7 5 6 7 2 6 2 2 4 7 8 10 11 12 13 14 15 15 15 15 15 14 14 14 13 12 12 11 11 11 11 11 10 10 10
8 7 8 8 7 7 8 7 7 6 6 7 8 1 6 3 2 3 4 6 8 10 12 12 13 14 14 14 14 14 14 14 14 13 12 12 12 12 12 11 11 11 10 10
7 8 10 9 3 4 7 8 8 9 8 7 8 6 2 1 1 1 2 4 7 9 10 11 12 12 12 12 12 12 13 12 12 12 12 12 12 11 11 11 11 11 11 11
7 9 10 9 4 5 7 7 9 10 10 10 9 8 3 4 3 2 1 2 5 7 9 10 10 9 9 10 10 10 10 10 10 10 11 10 10 9 10 10 10 10 11 11
7 8 8 9 7 8 9 9 10 11 10 11 11 7 6 4 3 3 3 2 4 5 6 7 7 7 7 7 7 7 7 7 8 8 9 8 8 8 9 9 9 9 10 10
8 7 8 9 6 8 12 10 10 9 9 9 9 2 4 5 6 5 5 5 5 5 5 5 5 4 4 4 4 4 3 3 4 4 4 4 5 6 6 7 8 8 9 10
6 8 7 8 6 12 4 3 4 7 7 4 2 3 5 8 8 8 7 7 8 8 8 8 7 8 7 6 6 6 6 5 4 3 2 1 1 2 2 4 5 6 6 7
3 6 7 7 10 11 4 3 3 5 5 3 4 6 10 12 11 10 9 9 10 10 10 10 11 11 10 10 9 10 9 8 7 7 5 4 3 1 1 1 2 3 5 6
4 5 8 7 9 9 0 5 1 5 5 4 6 9 11 11 6 8 9 10 11 11 11 12 12 13 12 11 10 11 11 10 9 8 7 6 5 4 4 3 3 3 4 5
7 7 9 9 9 5 6 5 4 6 3 5 6 8 9 5 7 13 11 11 11 12 12 13 13 13 12 11 11 12 12 11 9 8 8 7 6 5 5 4 4 4 4 4
6 6 7 6 8 2 7 4 2 5 4 4 6 7 9 13 16 14 13 12 11 11 12 12 12 12 10 10 10 11 11 9 8 7 8 7 6 6 5 5 4 4 5 5
4 3 2 2 2 6 2 1 4 2 3 5 7 10 14 16 16 15 13 11 11 10 10 10 11 10 9 9 9 10 8 7 6 6 6 6 6 5 6 5 5 4 4 5
3 1 3 3 2 3 2 1 1 1 4 6 9 12 14 15 15 14 12 11 10 9 9 8 8 8 8 7 7 7 6 5 5 5 4 4 4 4 5 5 5 6 6 7
3 2 3 4 1 1 4 2 2 5 7 10 12 13 14 15 14 13 11 10 9 8 7 7 6 7 7 6 5 5 5 4 4 3 4 4 4 5 5 5 5 5 6 5
4 4 5 4 5 4 4 3 4 7 9 12 14 14 14 13 13 12 10 9 8 7 6 5 5 5 5 4 4 3 3 3 4 4 5 5 5 5 6 6 6 3 6 5
Wind_Direction
222 250 262 335 330 315 308 309 317 341 360 266 270 279 269 190 197 194 188 182 179 180 170 167 170 166 161 162 163 158 154 150 156 158 163 163 160 158 151 136 121 117 90 81
238 240 291 314 300 285 289 298 318 339 208 279 296 285 250 191 201 200 195 191 184 173 172 170 172 169 169 171 171 163 160 162 172 166 167 165 153 169 155 144 138 143 127 116
251 277 322 286 292 298 301 313 327 324 295 233 283 236 176 171 188 192 198 194 185 178 177 175 174 171 171 173 171 170 167 171 178 168 169 157 158 178 171 173 170 167 160 140
254 265 270 285 299 304 306 349 312 297 284 325 306 319 126 161 184 192 193 189 184 180 177 175 175 176 177 176 171 171 172 177 177 177 183 182 189 189 178 185 167 172 184 181
241 249 274 287 307 299 324 333 288 281 283 282 269 300 95 162 194 186 187 185 179 177 177 176 178 179 179 175 173 174 176 180 180 188 189 198 206 196 178 185 169 194 187 198
263 269 276 285 299 286 216 238 236 241 254 278 26 308 51 106 165 165 170 175 177 175 175 176 178 176 179 178 178 178 179 185 186 192 197 209 210 205 196 200 188 202 193 198
239 238 227 240 235 195 225 264 270 256 253 19 70 290 24 79 143 169 166 168 172 174 175 175 177 177 179 181 182 183 184 189 191 196 202 207 210 207 208 212 203 215 206 198
244 241 206 210 247 263 242 279 296 312 324 339 174 312 56 104 142 162 162 161 167 174 177 179 180 180 182 183 185 187 189 192 194 199 204 208 209 215 214 212 221 208 221 210
249 250 154 205 234 263 241 258 312 287 283 288 336 16 129 144 160 167 168 168 173 177 179 181 182 184 185 187 188 190 191 195 198 202 204 208 210 220 222 204 214 216 210 203
254 264 213 174 194 209 285 284 252 275 299 300 301 286 84 151 171 174 177 180 179 178 181 182 183 186 186 189 190 193 195 199 202 204 207 208 209 211 213 215 215 216 207 206
234 246 223 197 223 220 193 217 252 274 296 300 308 17 62 122 180 183 182 184 184 184 183 182 183 184 187 189 190 194 198 202 205 209 210 215 211 209 208 212 212 210 211 203
213 239 245 222 190 288 251 248 235 264 270 263 289 351 95 100 160 188 189 183 186 188 186 185 184 186 189 192 194 196 201 205 209 209 210 212 213 211 211 211 211 208 208 209
179 214 229 206 191 200 224 224 236 257 272 269 275 322 120 129 144 173 196 186 189 193 192 189 189 191 195 198 200 201 204 209 209 207 209 211 212 211 213 215 209 207 207 212
198 226 245 260 259 189 209 210 218 240 259 270 270 291 222 96 52 95 198 196 191 191 194 195 193 196 201 203 206 210 212 212 212 210 211 213 215 214 213 213 210 208 210 213
213 230 237 258 258 245 246 234 222 238 266 281 291 291 341 43 26 18 331 196 186 184 189 195 196 195 200 204 209 213 217 214 213 213 214 216 217 216 216 214 213 212 213 217
215 240 234 236 232 240 250 248 242 246 258 268 277 287 65 72 66 56 55 110 147 157 168 177 183 186 190 197 204 208 213 212 208 216 220 217 215 212 214 216 216 217 220 224
197 217 232 243 223 242 247 247 247 248 251 264 278 6 98 96 73 58 58 79 91 98 107 119 129 134 140 148 158 161 170 180 185 198 212 212 218 217 219 222 223 224 226 228
203 218 234 248 227 248 279 44 286 271 266 266 272 112 116 110 96 72 61 73 82 84 84 83 87 89 89 96 105 106 108 110 112 110 105 110 233 238 236 237 241 244 244 243
217 219 240 246 244 249 211 174 237 257 260 220 190 146 137 137 126 87 70 74 78 81 81 78 76 78 76 78 84 90 87 83 81 75 66 55 46 32 342 303 292 279 270 263
169 224 240 238 258 263 84 101 142 257 237 151 167 163 162 176 174 107 95 89 84 81 82 83 81 79 75 73 78 83 81 76 68 65 62 58 52 49 39 22 351 325 294 281
182 203 231 238 249 255 89 120 195 246 53 122 164 170 176 168 92 115 112 99 93 89 87 86 83 78 74 73 74 74 70 65 59 57 57 51 45 47 44 31 14 346 320 311
212 208 217 237 247 223 112 166 248 40 80 142 156 153 133 114 115 120 117 111 105 99 92 88 83 79 74 72 74 73 66 63 61 59 56 48 35 24 32 24 10 353 333 311
240 294 268 255 42 73 115 66 65 75 125 144 146 137 134 132 131 127 123 119 112 105 97 91 90 86 79 72 72 74 69 60 58 57 52 43 36 27 16 1 356 342 338 325
170 337 280 261 123 92 103 126 144 157 144 143 139 138 139 135 133 131 128 125 119 112 106 104 101 96 89 81 75 73 66 57 49 41 32 22 11 3 11 341 343 342 340 338
7 243 259 255 344 125 93 70 139 141 138 135 133 135 135 134 134 132 130 128 124 119 114 110 106 102 97 87 76 66 56 38 26 16 357 344 346 357 330 329 330 323 331 344
355 321 304 341 29 352 49 69 130 137 136 135 133 129 128 130 130 129 125 122 121 119 118 114 106 96 88 81 75 58 33 11 347 340 340 334 333 339 324 322 316 262 260 242